Tracking 33744 objects as of 12-Apr-2026
HD Live streaming from Space Station
objects crossing your sky now

STARLINK-31857

Track STARLINK-31857 now!
10-day predictions
STARLINK-31857 is classified as:


NORAD ID: 59843
Int'l Code: 2024-097J
Perigee: 489.9 km
Apogee: 490.5 km
Inclination: 43.0 °
Period: 94.3 minutes
Semi major axis: 6861 km
RCS: Unknown
Launch date: May 23, 2024
Source: United States (US)
Launch site: AIR FORCE EASTERN TEST RANGE (AFETR)
Your satellite tracking list
Your tracking list is empty




NASA's NSSDC Master Catalog

Two Line Element Set (TLE):
1 59843U 24097J   26102.25063206  .00000034  00000-0  10755-4 0  9995
2 59843  43.0020  84.4641 0000396 266.2226  93.8580 15.27578258107057
Source of the keplerian elements: AFSPC